Regional Weather Roundup
Issued by NWS

Home | Current Version | Previous Version | Text Only | Print | Product List | Glossary On
Versions: 1 2 3 4 5 6 7 8 9 10 11 12 13 14 15 16 17 18 19 20 21 22 23 24 25 26 27 28 29 30 31 32 33 34 35 36 37 38 39 40 41 42 43 44 45 46 47 48 49 50
000
ASUS44 KFWD 272015
RWRTX
NORTH TEXAS HOURLY WEATHER ROUNDUP
NATIONAL WEATHER SERVICE FORT WORTH TX
300 PM CDT TUE SEP 27 2016

NOTE: "FAIR" INDICATES FEW OR NO CLOUDS BELOW 12,000 FEET WITH NO
SIGNIFICANT WEATHER AND/OR OBSTRUCTIONS TO VISIBILITY.

TXZ118-119-272100-
DALLAS/FORT WORTH METROPLEX

CITY           SKY/WX    TMP DP  RH WIND       PRES   REMARKS
DFW AIRPORT    CLOUDY    78  46  32 N8        30.05F
DALLAS LOVE    CLOUDY    78  48  34 NW8       30.05F
FTW MEACHAM    CLOUDY    77  48  35 NW7       30.06F
DAL-EXECUTIVE  CLOUDY    76  50  40 NW8       30.06F
FTW-ALLIANCE   CLOUDY    75  40  28 NW3       30.06F
FTW-NAS-JRB    CLOUDY    76  46  34 NW7       30.07F
FTW-SPINKS     MOSUNNY   77  45  31 N5        30.09F
ARLINGTON      CLOUDY    77  46  33 N7        30.06F
GRAND PRAIRIE  SUNNY     73  45  35 CALM      30.08F
ADDISON        SUNNY     77  50  38 NW8       30.06F
MESQUITE       SUNNY     75  50  41 N6        30.05F
LANCASTER      PTSUNNY   78  49  35 NW5       30.06F
$$

TXZ091>094-102>105-117-120-121-131>134-272100-
NORTH CENTRAL TEXAS

CITY           SKY/WX    TMP DP  RH WIND       PRES   REMARKS
SHRMAN/DENISON SUNNY     78  49  35 NE7       30.07F
GAINESVILLE      N/A     74  46  36 CALM      30.09F
BOWIE          MOSUNNY   75  46  35 CALM      30.08F
BRIDGEPORT     CLOUDY    76  49  38 CALM      30.10F
DECATUR        MOSUNNY   73  44  34 N3        30.09F
DENTON         CLOUDY    75  43  31 N5        30.06F
MCKINNEY       PTSUNNY   75  45  34 NW6       30.06F
GREENVILLE     MOSUNNY   77  50  38 N7        30.05F
ROCKWALL       CLOUDY    75  53  45 N7        30.05F
TERRELL        CLOUDY    77  50  38 NW7       30.05F
WAXAHACHIE     MOSUNNY   77  52  41 NW6       30.07F
CLEBURNE       PTSUNNY   77  45  31 N9        30.08F
GRANBURY       CLOUDY    76  43  29 N8        30.08F
$$

TXZ083>090-098>101-113>116-127>130-139>142-154-155-272100-
WESTERN NORTH TEXAS

CITY           SKY/WX    TMP DP  RH WIND       PRES   REMARKS
WICHITA FALLS  MOSUNNY   79  46  31 VRB5      30.08F
WF-KICKAPOO    SUNNY     77  46  32 CALM      30.09F
VERNON         SUNNY     80  33  18 CALM      30.09F
ABILENE        MOSUNNY   72  46  39 CALM      30.13F
ABILENE-DYESS  MOSUNNY   72  47  40 VRB3      30.11F
CISCO            N/A     73  41  31 NW7       30.14
BRECKENRIDGE     N/A     74  42  32 CALM      30.10F HAZE
GRAHAM         CLOUDY    75  44  33 CALM      30.08F
MINERAL WELLS  CLOUDY    76  46  34 N9        30.08F
STEPHENVILLE   CLOUDY    75  41  29 N6        30.12F
COMANCHE       MOSUNNY   74  46  36 CALM      30.11F
BROWNWOOD      MOSUNNY   75  46  35 N7        30.10F
COLEMAN        CLOUDY    74  46  36 N6        30.12F
$$

TXZ143>147-156>162-174-175-272100-
CENTRAL TEXAS

CITY           SKY/WX    TMP DP  RH WIND       PRES   REMARKS
WACO           CLOUDY    81  58  45 N12       30.05F
WACO-MCGREGOR  PTSUNNY   78  58  49 NE8       30.05F
HILLSBORO      CLOUDY    76  53  44 NW5       30.06F
CORSICANA      MOSUNNY   80  56  43 N8        30.05F
MEXIA          CLOUDY    76  58  52 NW7       30.04F
HEARNE         CLOUDY    77  62  59 N7        30.04F
CAMERON        CLOUDY    78  59  53 N10       30.04F
TEMPLE         PTSUNNY   78  59  51 N10G16    30.06F
KILLEEN        CLOUDY    76  57  51 VRB5      30.06F
KILLEEN-SKYLRK PTSUNNY   77  60  55 N9        30.07F
FORT HOOD      CLOUDY    76  58  53 VRB6      30.04F
GATESVILLE     MOSUNNY   77  55  47 NE5       30.08F
HAMILTON       CLOUDY    77  50  38 N5        30.09F
LAMPASAS       CLOUDY    76  58  54 N7        30.07F
$$

TXZ095>097-106>112-122>126-135>138-148>153-164>167-272100-
EAST TEXAS

CITY           SKY/WX    TMP DP  RH WIND       PRES   REMARKS
PARIS          SUNNY     79  52  38 SW3       30.05F
SULPHUR SPRNGS CLOUDY    78  50  37 NW5       30.06F
MOUNT PLEASANT MOSUNNY   77  52  41 NW6       30.05F
GILMER         MOSUNNY   76  55  48 N5        30.03F
MINEOLA        CLOUDY    77  57  50 NW6       30.04F
TYLER          CLOUDY    78  57  48 N7        30.03F
LONGVIEW       PTSUNNY   77  56  48 NE7       30.02F
MARSHALL       CLOUDY    75  51  43 CALM      30.05F
ATHENS         MOSUNNY   77  55  47 N5        30.03F
PALESTINE      MOSUNNY   78  61  55 N6        30.04F
JACKSONVILLE   MOSUNNY   79  61  54 N7        30.05F
HENDERSON      CLOUDY    75  57  52 N5        30.04F
CENTER         CLOUDY    80  58  46 N6        30.02F
NACOGDOCHES    PTSUNNY   81  59  47 NE8       30.00F
LUFKIN         MOSUNNY   81  59  47 VRB3      30.00F
$$

SUPPLEMENTAL OBSERVATIONS (CENTRAL)

CITY           SKY/WX    TMP DP  RH WIND       PRES   REMARKS
DENISON DAM      N/A     75  46  35 W6          N/A
CADDO GRASSLND   N/A     79  48  34 W5          N/A
PAT MAYSE LAKE   N/A     75  45  33 S6          N/A
ATHENS           N/A     81  57  44 N1          N/A
LAKE LIMESTONE   N/A     79  57  47 N7          N/A
MCGREGOR         N/A     81  59  47 N3G12       N/A
TEMPLE           N/A     79  54  41 VRB3G16     N/A
$$

SUPPLEMENTAL OBSERVATIONS (WEST)

CITY           SKY/WX    TMP DP  RH WIND       PRES   REMARKS
MILLERS CREEK    N/A     77  50  38 S5          N/A
POSSUM KINGDOM   N/A     73  45  35 N5          N/A
LBJ GRASSLAND    N/A     75  45  33 N6          N/A
GRANBURY         N/A     75  43  31 N9          N/A
COMANCHE         N/A     75  45  33 VRB7        N/A
HAMBY            N/A     73  46  38 NW5         N/A
$$

SUPPLEMENTAL OBSERVATIONS (EAST)

CITY           SKY/WX    TMP DP  RH WIND       PRES   REMARKS
CLARKSVILLE      N/A     81  50  34 W2          N/A
CADDO LAKE       N/A     81  59  47 NW5         N/A
GILMER           N/A     79  55  44 N3          N/A
HENDERSON        N/A     77  57  50 NE3         N/A
LUFKIN           N/A     82  61  47 MISG        N/A
N SABINE NF      N/A    N/A N/A N/A MISG        N/A
S SABINE NF      N/A     82  59  44 SW5         N/A
$$

SUPPLEMENTAL OBSERVATIONS ARE A COLLECTION OF AUTOMATED INSTRUMENTS
THAT ARE MAINTAINED BY A VARIETY OF FEDERAL AND STATE AGENCIES.
CERTAIN ELEMENTS...SUCH AS HUMIDITY VALUES AND SUSTAINED WIND
SPEEDS...MAY BE APPROXIMATED.





USA.gov is the U.S. government's official web portal to all federal, state and local government web resources and services.